Time,TemperatureF,DewpointF,PressureIn,WindDirection,WindDirectionDegrees,WindSpeedMPH,WindSpeedGustMPH,Humidity,HourlyPrecipIn,Conditions,Clouds,dailyrainin,SoftwareType,DateUTC
2013-03-10 00:00:00,32.3,30.8,29.89,North,5,0.0,0.0,94,0.01,,---,0.10,VWS V14.01,2013-03-10 06:00:00,
2013-03-10 00:05:00,32.3,30.8,29.90,North,360,0.0,0.0,94,0.01,,---,0.00,VWS V14.01,2013-03-10 06:05:00,
2013-03-10 00:10:00,32.3,30.8,29.90,North,360,0.0,0.0,94,0.01,,---,0.00,VWS V14.01,2013-03-10 06:10:00,
2013-03-10 00:15:00,32.2,30.7,29.90,North,360,0.0,0.0,94,0.01,,---,0.00,VWS V14.01,2013-03-10 06:15:00,
2013-03-10 00:20:00,32.2,30.7,29.90,North,360,0.0,0.0,94,0.01,,---,0.00,VWS V14.01,2013-03-10 06:20:00,
2013-03-10 00:25:00,32.2,30.7,29.90,North,360,0.0,0.0,94,0.01,,---,0.00,VWS V14.01,2013-03-10 06:25:00,
2013-03-10 00:30:00,32.2,30.7,29.91,North,5,0.0,0.0,94,0.01,,---,0.00,VWS V14.01,2013-03-10 06:30:00,
2013-03-10 00:35:00,32.2,30.7,29.91,North,5,0.0,0.0,94,0.01,,---,0.00,VWS V14.01,2013-03-10 06:35:00,
2013-03-10 00:40:00,32.2,30.7,29.92,North,5,0.0,0.0,94,0.01,,---,0.00,VWS V14.01,2013-03-10 06:40:00,
2013-03-10 00:45:00,32.2,30.7,29.91,North,5,0.0,0.0,94,0.01,,---,0.00,VWS V14.01,2013-03-10 06:45:00,
2013-03-10 00:50:00,32.2,30.7,29.91,North,360,0.0,0.0,94,0.01,,---,0.00,VWS V14.01,2013-03-10 06:50:00,
2013-03-10 00:55:00,32.2,30.7,29.91,North,5,0.0,0.0,94,0.01,,---,0.00,VWS V14.01,2013-03-10 06:55:00,
2013-03-10 01:00:00,32.1,30.6,29.91,North,5,0.0,0.0,94,0.01,,---,0.00,VWS V14.01,2013-03-10 07:00:00,
2013-03-10 01:05:00,32.2,30.7,29.91,North,5,0.0,0.0,94,0.00,,---,0.00,VWS V14.01,2013-03-10 07:05:00,
2013-03-10 01:10:00,32.1,30.6,29.90,North,5,0.0,0.0,94,0.00,,---,0.00,VWS V14.01,2013-03-10 07:10:00,
2013-03-10 01:15:00,32.2,30.7,29.91,North,5,0.0,0.0,94,0.00,,---,0.00,VWS V14.01,2013-03-10 07:15:00,
2013-03-10 01:20:00,32.2,30.7,29.91,North,360,0.0,0.0,94,0.00,,---,0.00,VWS V14.01,2013-03-10 07:20:00,
2013-03-10 01:25:00,32.2,30.7,29.91,North,360,0.0,0.0,94,0.00,,---,0.00,VWS V14.01,2013-03-10 07:25:00,
2013-03-10 01:30:00,32.2,30.7,29.91,North,360,0.0,0.0,94,0.00,,---,0.00,VWS V14.01,2013-03-10 07:30:00,
2013-03-10 01:35:00,32.3,30.8,29.92,ENE,68,0.0,0.0,94,0.00,,---,0.00,VWS V14.01,2013-03-10 07:35:00,
2013-03-10 01:40:00,32.3,30.8,29.92,ENE,68,0.0,0.0,94,0.00,,---,0.00,VWS V14.01,2013-03-10 07:40:00,
2013-03-10 01:45:00,32.3,30.8,29.92,North,5,0.0,0.0,94,0.00,,---,0.00,VWS V14.01,2013-03-10 07:45:00,
2013-03-10 01:50:00,32.3,30.8,29.91,NNW,328,0.0,0.0,94,0.00,,---,0.00,VWS V14.01,2013-03-10 07:50:00,
2013-03-10 01:55:00,32.4,30.9,29.91,NNW,336,0.0,0.0,94,0.00,,---,0.00,VWS V14.01,2013-03-10 07:55:00,
2013-03-10 03:00:00,32.4,30.9,29.91,NNW,342,0.0,0.0,94,0.00,,---,0.00,VWS V14.01,2013-03-10 08:00:00,
2013-03-10 03:05:00,32.4,30.9,29.92,NNW,342,0.0,0.0,94,0.00,,---,0.00,VWS V14.01,2013-03-10 08:05:00,
2013-03-10 03:10:00,32.5,31.0,29.92,NNW,341,0.0,0.0,94,0.00,,---,0.00,VWS V14.01,2013-03-10 08:10:00,
2013-03-10 03:15:00,32.5,31.0,29.92,NE,35,0.0,0.0,94,0.00,,---,0.00,VWS V14.01,2013-03-10 08:15:00,
2013-03-10 03:20:00,32.5,31.0,29.92,NE,34,0.0,0.0,94,0.00,,---,0.00,VWS V14.01,2013-03-10 08:20:00,
2013-03-10 03:25:00,32.5,31.0,29.93,North,360,0.0,0.0,94,0.00,,---,0.00,VWS V14.01,2013-03-10 08:25:00,
2013-03-10 03:30:00,32.5,31.0,29.93,North,360,0.0,0.0,94,0.00,,---,0.00,VWS V14.01,2013-03-10 08:30:00,
2013-03-10 03:35:00,32.5,31.0,29.93,North,360,0.0,0.0,94,0.00,,---,0.00,VWS V14.01,2013-03-10 08:35:00,
2013-03-10 03:40:00,32.5,31.0,29.92,North,360,0.0,0.0,94,0.00,,---,0.00,VWS V14.01,2013-03-10 08:40:00,
2013-03-10 03:45:00,32.4,30.6,29.92,North,5,0.0,0.0,93,0.00,,---,0.00,VWS V14.01,2013-03-10 08:45:00,
2013-03-10 03:50:00,32.2,30.4,29.92,NNW,327,0.0,0.0,93,0.00,,---,0.00,VWS V14.01,2013-03-10 08:50:00,
2013-03-10 03:55:00,32.0,30.2,29.92,North,349,0.0,0.0,93,0.00,,---,0.00,VWS V14.01,2013-03-10 08:55:00,
2013-03-10 04:00:00,31.9,30.1,29.92,North,355,0.0,0.0,93,0.00,,---,0.00,VWS V14.01,2013-03-10 09:00:00,
2013-03-10 04:05:00,31.7,29.9,29.93,NNW,346,0.0,0.0,93,0.00,,---,0.00,VWS V14.01,2013-03-10 09:05:00,
2013-03-10 04:10:00,31.6,29.8,29.93,North,355,0.0,0.0,93,0.00,,---,0.00,VWS V14.01,2013-03-10 09:10:00,
2013-03-10 04:15:00,31.4,29.6,29.92,North,360,0.0,0.0,93,0.00,,---,0.00,VWS V14.01,2013-03-10 09:15:00,
2013-03-10 04:20:00,31.3,29.5,29.93,NNE,15,0.0,0.0,93,0.00,,---,0.00,VWS V14.01,2013-03-10 09:20:00,
2013-03-10 04:25:00,31.1,29.0,29.93,North,9,0.0,0.0,92,0.00,,---,0.00,VWS V14.01,2013-03-10 09:25:00,
2013-03-10 04:30:00,31.0,29.0,29.94,NNW,346,0.0,0.0,92,0.00,,---,0.00,VWS V14.01,2013-03-10 09:30:00,
2013-03-10 04:35:00,30.7,28.7,29.95,North,360,0.0,0.0,92,0.00,,---,0.00,VWS V14.01,2013-03-10 09:35:00,
2013-03-10 04:40:00,30.5,28.5,29.95,North,355,0.0,0.0,92,0.00,,---,0.00,VWS V14.01,2013-03-10 09:40:00,
2013-03-10 04:45:00,30.3,28.3,29.95,North,351,0.0,0.0,92,0.00,,---,0.00,VWS V14.01,2013-03-10 09:45:00,
2013-03-10 04:50:00,30.1,28.1,29.96,NNE,31,0.0,0.0,92,0.00,,---,0.00,VWS V14.01,2013-03-10 09:50:00,
2013-03-10 04:55:00,30.0,28.0,29.95,NNE,30,0.0,0.0,92,0.00,,---,0.00,VWS V14.01,2013-03-10 09:55:00,
2013-03-10 05:00:00,29.9,27.9,29.96,North,11,0.0,0.0,92,0.00,,---,0.00,VWS V14.01,2013-03-10 10:00:00,
2013-03-10 05:05:00,29.9,27.9,29.96,North,11,0.0,0.0,92,0.00,,---,0.00,VWS V14.01,2013-03-10 10:05:00,
2013-03-10 05:10:00,29.7,27.7,29.96,North,10,0.0,0.0,92,0.00,,---,0.00,VWS V14.01,2013-03-10 10:10:00,
2013-03-10 05:15:00,29.4,27.1,29.97,North,355,0.0,0.0,91,0.00,,---,0.00,VWS V14.01,2013-03-10 10:15:00,
2013-03-10 05:20:00,29.3,27.0,29.97,North,355,0.0,0.0,91,0.00,,---,0.00,VWS V14.01,2013-03-10 10:20:00,
2013-03-10 05:25:00,29.1,26.8,29.97,NNW,344,0.0,0.0,91,0.00,,---,0.00,VWS V14.01,2013-03-10 10:25:00,
2013-03-10 05:30:00,29.0,26.7,29.98,NNW,344,0.0,0.0,91,0.00,,---,0.00,VWS V14.01,2013-03-10 10:30:00,
2013-03-10 05:35:00,28.9,26.6,29.98,NNW,344,0.0,0.0,91,0.00,,---,0.00,VWS V14.01,2013-03-10 10:35:00,
2013-03-10 05:40:00,28.8,26.5,29.98,NNW,342,0.0,0.0,91,0.00,,---,0.00,VWS V14.01,2013-03-10 10:40:00,
2013-03-10 05:45:00,28.8,26.5,29.98,North,349,0.0,0.0,91,0.00,,---,0.00,VWS V14.01,2013-03-10 10:45:00,
2013-03-10 05:50:00,28.7,26.4,29.97,NNW,336,0.0,0.0,91,0.00,,---,0.00,VWS V14.01,2013-03-10 10:50:00,
2013-03-10 05:55:00,28.5,26.2,29.97,North,350,0.0,0.0,91,0.00,,---,0.00,VWS V14.01,2013-03-10 10:55:00,
2013-03-10 06:00:00,28.3,26.0,29.98,North,5,0.0,0.0,91,0.00,,---,0.00,VWS V14.01,2013-03-10 11:00:00,
2013-03-10 06:05:00,28.1,25.8,29.99,NW,325,0.0,0.0,91,0.00,,---,0.00,VWS V14.01,2013-03-10 11:05:00,
2013-03-10 06:10:00,27.9,25.4,29.99,North,355,0.0,0.0,90,0.00,,---,0.00,VWS V14.01,2013-03-10 11:10:00,
2013-03-10 06:15:00,27.8,25.2,29.99,North,355,0.0,0.0,90,0.00,,---,0.00,VWS V14.01,2013-03-10 11:15:00,
2013-03-10 06:20:00,27.7,25.4,30.00,NNW,345,0.0,0.0,91,0.00,,---,0.00,VWS V14.01,2013-03-10 11:20:00,
2013-03-10 06:25:00,27.5,25.0,30.00,NNW,346,0.0,0.0,90,0.00,,---,0.00,VWS V14.01,2013-03-10 11:25:00,
2013-03-10 06:30:00,27.4,24.9,30.02,North,355,0.0,0.0,90,0.00,,---,0.00,VWS V14.01,2013-03-10 11:30:00,
2013-03-10 06:35:00,27.3,24.8,30.02,North,355,0.0,0.0,90,0.00,,---,0.00,VWS V14.01,2013-03-10 11:35:00,
2013-03-10 06:40:00,27.2,24.9,30.01,North,355,0.0,0.0,91,0.00,,---,0.00,VWS V14.01,2013-03-10 11:40:00,
2013-03-10 06:45:00,27.1,24.8,30.01,NNW,331,0.0,0.0,91,0.00,,---,0.00,VWS V14.01,2013-03-10 11:45:00,
2013-03-10 06:50:00,27.0,24.5,30.00,NNE,13,0.0,0.0,90,0.00,,---,0.00,VWS V14.01,2013-03-10 11:50:00,
2013-03-10 06:55:00,26.8,24.3,30.00,NNE,18,0.0,0.0,90,0.00,,---,0.00,VWS V14.01,2013-03-10 11:55:00,
2013-03-10 07:00:00,26.7,24.2,30.00,North,5,0.0,0.0,90,0.00,,---,0.00,VWS V14.01,2013-03-10 12:00:00,
2013-03-10 07:05:00,26.7,24.4,30.01,NNW,337,0.0,0.0,91,0.00,,---,0.00,VWS V14.01,2013-03-10 12:05:00,
2013-03-10 07:10:00,26.6,24.3,30.02,NNW,346,0.0,0.0,91,0.00,,---,0.00,VWS V14.01,2013-03-10 12:10:00,
2013-03-10 07:15:00,26.6,24.3,30.02,NW,317,0.0,0.0,91,0.00,,---,0.00,VWS V14.01,2013-03-10 12:15:00,
2013-03-10 07:20:00,26.5,24.2,30.02,NNW,337,0.0,0.0,91,0.00,,---,0.00,VWS V14.01,2013-03-10 12:20:00,
2013-03-10 07:25:00,26.4,24.1,30.03,North,9,0.0,0.0,91,0.00,,---,0.00,VWS V14.01,2013-03-10 12:25:00,
2013-03-10 07:30:00,26.4,24.1,30.02,North,355,0.0,0.0,91,0.00,,---,0.00,VWS V14.01,2013-03-10 12:30:00,
2013-03-10 07:35:00,26.3,24.0,30.03,North,355,0.0,0.0,91,0.00,,---,0.00,VWS V14.01,2013-03-10 12:35:00,
2013-03-10 07:40:00,26.3,24.0,30.04,NNE,27,0.0,0.0,91,0.00,,---,0.00,VWS V14.01,2013-03-10 12:40:00,
2013-03-10 07:45:00,26.3,24.0,30.04,NNW,338,0.0,0.0,91,0.00,,---,0.00,VWS V14.01,2013-03-10 12:45:00,
2013-03-10 07:50:00,26.2,23.9,30.04,NNW,340,0.0,0.0,91,0.00,,---,0.00,VWS V14.01,2013-03-10 12:50:00,
2013-03-10 07:55:00,26.2,23.9,30.04,NNW,340,0.0,0.0,91,0.00,,---,0.00,VWS V14.01,2013-03-10 12:55:00,
2013-03-10 08:00:00,26.1,23.8,30.04,North,355,0.0,0.0,91,0.00,,---,0.00,VWS V14.01,2013-03-10 13:00:00,
2013-03-10 08:05:00,26.1,23.8,30.04,NNW,344,0.0,0.0,91,0.00,,---,0.00,VWS V14.01,2013-03-10 13:05:00,
2013-03-10 08:10:00,26.0,23.7,30.04,NNW,348,0.0,0.0,91,0.00,,---,0.00,VWS V14.01,2013-03-10 13:10:00,
2013-03-10 08:15:00,25.9,23.6,30.04,NW,317,0.0,0.0,91,0.00,,---,0.00,VWS V14.01,2013-03-10 13:15:00,
2013-03-10 08:20:00,25.8,23.3,30.04,North,355,0.0,0.0,90,0.00,,---,0.00,VWS V14.01,2013-03-10 13:20:00,
2013-03-10 08:25:00,25.7,23.2,30.04,NNW,336,0.0,0.0,90,0.00,,---,0.00,VWS V14.01,2013-03-10 13:25:00,
2013-03-10 08:30:00,25.7,23.4,30.05,NW,325,0.0,0.0,91,0.00,,---,0.00,VWS V14.01,2013-03-10 13:30:00,
2013-03-10 08:35:00,25.6,23.1,30.05,NNE,14,0.0,0.0,90,0.00,,---,0.00,VWS V14.01,2013-03-10 13:35:00,
2013-03-10 08:40:00,25.6,23.1,30.05,NNW,346,0.0,0.0,90,0.00,,---,0.00,VWS V14.01,2013-03-10 13:40:00,
2013-03-10 08:45:00,25.6,23.1,30.04,North,11,0.0,0.0,90,0.00,,---,0.00,VWS V14.01,2013-03-10 13:45:00,
2013-03-10 08:50:00,25.6,23.1,30.04,NW,314,0.0,0.0,90,0.00,,---,0.00,VWS V14.01,2013-03-10 13:50:00,
2013-03-10 08:55:00,25.6,23.1,30.04,North,360,0.0,0.0,90,0.00,,---,0.00,VWS V14.01,2013-03-10 13:55:00,
2013-03-10 09:00:00,25.6,23.1,30.04,NNW,348,0.0,0.0,90,0.00,,---,0.00,VWS V14.01,2013-03-10 14:00:00,
2013-03-10 09:05:00,25.6,23.1,30.05,North,355,0.0,0.0,90,0.00,,---,0.00,VWS V14.01,2013-03-10 14:05:00,
2013-03-10 09:10:00,25.7,23.2,30.05,North,355,0.0,0.0,90,0.00,,---,0.00,VWS V14.01,2013-03-10 14:10:00,
2013-03-10 09:15:00,25.8,23.3,30.07,North,355,0.0,0.0,90,0.00,,---,0.00,VWS V14.01,2013-03-10 14:15:00,
2013-03-10 09:20:00,25.8,23.3,30.08,NE,38,0.0,0.0,90,0.00,,---,0.00,VWS V14.01,2013-03-10 14:20:00,
2013-03-10 09:25:00,25.8,23.3,30.08,North,355,0.0,0.0,90,0.00,,---,0.00,VWS V14.01,2013-03-10 14:25:00,
2013-03-10 09:30:00,25.9,23.4,30.09,NNW,337,0.0,0.0,90,0.00,,---,0.00,VWS V14.01,2013-03-10 14:30:00,
2013-03-10 09:35:00,25.9,23.4,30.09,North,355,0.0,0.0,90,0.00,,---,0.00,VWS V14.01,2013-03-10 14:35:00,
2013-03-10 09:40:00,25.9,23.4,30.09,North,355,0.0,0.0,90,0.00,,---,0.00,VWS V14.01,2013-03-10 14:40:00,
2013-03-10 09:45:00,26.0,23.5,30.10,North,355,0.0,0.0,90,0.00,,---,0.00,VWS V14.01,2013-03-10 14:45:00,
2013-03-10 09:50:00,26.0,23.5,30.10,ESE,105,0.0,0.0,90,0.00,,---,0.00,VWS V14.01,2013-03-10 14:50:00,
2013-03-10 09:55:00,26.0,23.5,30.10,NNW,344,0.0,0.0,90,0.00,,---,0.00,VWS V14.01,2013-03-10 14:55:00,
2013-03-10 10:00:00,26.0,23.5,30.10,NW,325,0.0,0.0,90,0.00,,---,0.00,VWS V14.01,2013-03-10 15:00:00,
2013-03-10 10:05:00,25.9,23.1,30.10,North,5,0.0,0.0,89,0.00,,---,0.00,VWS V14.01,2013-03-10 15:05:00,
2013-03-10 10:10:00,25.9,23.1,30.10,NNW,348,0.0,0.0,89,0.00,,---,0.00,VWS V14.01,2013-03-10 15:10:00,
2013-03-10 10:15:00,25.9,23.1,30.10,NNW,331,0.0,0.0,89,0.00,,---,0.00,VWS V14.01,2013-03-10 15:15:00,
2013-03-10 10:20:00,25.9,23.1,30.11,North,355,0.0,0.0,89,0.00,,---,0.00,VWS V14.01,2013-03-10 15:20:00,
2013-03-10 10:25:00,25.9,23.1,30.11,NNW,335,0.0,0.0,89,0.00,,---,0.00,VWS V14.01,2013-03-10 15:25:00,
2013-03-10 10:30:00,25.8,23.0,30.11,NNW,346,0.0,0.0,89,0.00,,---,0.00,VWS V14.01,2013-03-10 15:30:00,
2013-03-10 10:35:00,25.9,23.4,30.11,NNW,346,0.0,0.0,90,0.00,,---,0.00,VWS V14.01,2013-03-10 15:35:00,
2013-03-10 10:40:00,26.0,23.2,30.10,NNW,347,0.0,0.0,89,0.00,,---,0.00,VWS V14.01,2013-03-10 15:40:00,
2013-03-10 10:45:00,26.0,23.2,30.10,NNW,348,0.0,0.0,89,0.00,,---,0.00,VWS V14.01,2013-03-10 15:45:00,
2013-03-10 10:50:00,26.0,23.2,30.10,North,355,0.0,0.0,89,0.00,,---,0.00,VWS V14.01,2013-03-10 15:50:00,
2013-03-10 10:55:00,26.0,23.2,30.10,North,355,0.0,0.0,89,0.00,,---,0.00,VWS V14.01,2013-03-10 15:55:00,
2013-03-10 11:00:00,26.0,23.2,30.10,NNW,344,0.0,0.0,89,0.00,,---,0.00,VWS V14.01,2013-03-10 16:00:00,
2013-03-10 11:05:00,26.0,23.2,30.12,NW,310,0.0,0.0,89,0.00,,---,0.00,VWS V14.01,2013-03-10 16:05:00,
2013-03-10 11:10:00,26.2,23.7,30.12,NW,310,0.0,0.0,90,0.00,,---,0.00,VWS V14.01,2013-03-10 16:10:00,
2013-03-10 11:15:00,26.3,23.8,30.13,North,355,0.0,0.0,90,0.00,,---,0.00,VWS V14.01,2013-03-10 16:15:00,
2013-03-10 11:20:00,26.4,23.9,30.13,NNW,346,0.0,0.0,90,0.00,,---,0.00,VWS V14.01,2013-03-10 16:20:00,
2013-03-10 11:25:00,26.5,23.7,30.12,NNW,346,0.0,0.0,89,0.00,,---,0.00,VWS V14.01,2013-03-10 16:25:00,
2013-03-10 11:30:00,26.7,23.9,30.12,NNW,345,0.0,0.0,89,0.00,,---,0.00,VWS V14.01,2013-03-10 16:30:00,
2013-03-10 11:35:00,26.9,24.1,30.11,NNW,345,0.0,0.0,89,0.00,,---,0.00,VWS V14.01,2013-03-10 16:35:00,
2013-03-10 11:40:00,27.0,24.2,30.11,North,355,0.0,0.0,89,0.00,,---,0.00,VWS V14.01,2013-03-10 16:40:00,
2013-03-10 11:45:00,27.2,24.4,30.10,WNW,295,0.0,0.0,89,0.00,,---,0.00,VWS V14.01,2013-03-10 16:45:00,
2013-03-10 11:50:00,27.3,24.5,30.10,NNW,346,0.0,0.0,89,0.00,,---,0.00,VWS V14.01,2013-03-10 16:50:00,
2013-03-10 11:55:00,27.4,24.3,30.09,NNW,341,0.0,0.0,88,0.00,,---,0.00,VWS V14.01,2013-03-10 16:55:00,
2013-03-10 12:00:00,27.8,24.7,30.09,NW,326,0.0,0.0,88,0.00,,---,0.00,VWS V14.01,2013-03-10 17:00:00,
2013-03-10 12:05:00,28.6,25.5,30.09,North,355,0.0,0.0,88,0.00,,---,0.00,VWS V14.01,2013-03-10 17:05:00,
2013-03-10 12:10:00,28.9,25.5,30.10,North,360,0.0,0.0,87,0.00,,---,0.00,VWS V14.01,2013-03-10 17:10:00,
2013-03-10 12:15:00,28.8,25.1,30.10,NNE,20,0.0,0.0,86,0.00,,---,0.00,VWS V14.01,2013-03-10 17:15:00,
2013-03-10 12:20:00,28.6,25.0,30.10,North,355,0.0,0.0,86,0.00,,---,0.00,VWS V14.01,2013-03-10 17:20:00,
2013-03-10 12:25:00,28.4,24.8,30.10,NNW,346,0.0,0.0,86,0.00,,---,0.00,VWS V14.01,2013-03-10 17:25:00,
2013-03-10 12:30:00,28.2,24.6,30.10,NNW,343,0.0,0.0,86,0.00,,---,0.00,VWS V14.01,2013-03-10 17:30:00,
2013-03-10 12:35:00,28.2,24.8,30.10,NNW,343,0.0,0.0,87,0.00,,---,0.00,VWS V14.01,2013-03-10 17:35:00,
2013-03-10 12:40:00,28.2,24.8,30.10,NNW,348,0.0,0.0,87,0.00,,---,0.00,VWS V14.01,2013-03-10 17:40:00,
2013-03-10 12:45:00,28.3,24.9,30.09,North,360,0.0,0.0,87,0.00,,---,0.00,VWS V14.01,2013-03-10 17:45:00,
2013-03-10 12:50:00,28.3,24.9,30.10,North,360,0.0,0.0,87,0.00,,---,0.00,VWS V14.01,2013-03-10 17:50:00,
2013-03-10 12:55:00,28.2,24.8,30.11,East,91,0.0,0.0,87,0.00,,---,0.00,VWS V14.01,2013-03-10 17:55:00,
2013-03-10 13:00:00,28.2,24.6,30.11,NNW,342,0.0,7.0,86,0.00,,---,0.00,VWS V14.01,2013-03-10 18:00:00,
2013-03-10 13:05:00,28.1,24.5,30.11,SE,138,0.0,4.0,86,0.00,,---,0.00,VWS V14.01,2013-03-10 18:05:00,
2013-03-10 13:10:00,28.1,24.5,30.12,NNW,342,0.0,4.0,86,0.00,,---,0.00,VWS V14.01,2013-03-10 18:10:00,
2013-03-10 13:15:00,28.0,24.6,30.12,North,5,4.0,4.0,87,0.00,,---,0.00,VWS V14.01,2013-03-10 18:15:00,
2013-03-10 13:20:00,28.0,24.6,30.12,NNE,22,2.0,5.0,87,0.00,,---,0.00,VWS V14.01,2013-03-10 18:20:00,
2013-03-10 13:25:00,28.0,24.6,30.12,NNW,342,2.0,5.0,87,0.00,,---,0.00,VWS V14.01,2013-03-10 18:25:00,
2013-03-10 13:30:00,28.1,24.7,30.12,North,350,1.0,5.0,87,0.00,,---,0.00,VWS V14.01,2013-03-10 18:30:00,
2013-03-10 13:35:00,28.2,24.6,30.11,NNW,348,3.0,6.0,86,0.00,,---,0.00,VWS V14.01,2013-03-10 18:35:00,
2013-03-10 13:40:00,28.2,24.6,30.11,NNW,334,0.0,6.0,86,0.00,,---,0.00,VWS V14.01,2013-03-10 18:40:00,
2013-03-10 13:45:00,28.2,24.6,30.11,NNE,19,0.0,7.0,86,0.00,,---,0.00,VWS V14.01,2013-03-10 18:45:00,
2013-03-10 13:50:00,28.3,24.9,30.11,NNE,18,0.0,7.0,87,0.00,,---,0.00,VWS V14.01,2013-03-10 18:50:00,
2013-03-10 13:55:00,28.4,24.8,30.11,NNE,32,1.0,7.0,86,0.00,,---,0.00,VWS V14.01,2013-03-10 18:55:00,
2013-03-10 14:00:00,28.5,24.9,30.11,NNW,346,0.0,7.0,86,0.00,,---,0.00,VWS V14.01,2013-03-10 19:00:00,
2013-03-10 14:05:00,28.5,24.9,30.11,NNW,342,0.0,4.0,86,0.00,,---,0.00,VWS V14.01,2013-03-10 19:05:00,
2013-03-10 14:10:00,28.5,24.9,30.10,North,5,1.0,6.0,86,0.00,,---,0.00,VWS V14.01,2013-03-10 19:10:00,
2013-03-10 14:15:00,28.5,24.9,30.09,East,80,1.0,6.0,86,0.00,,---,0.00,VWS V14.01,2013-03-10 19:15:00,
2013-03-10 14:20:00,28.4,24.5,30.09,North,355,1.0,7.0,85,0.00,,---,0.00,VWS V14.01,2013-03-10 19:20:00,
2013-03-10 14:25:00,28.3,24.4,30.07,NW,314,1.0,10.0,85,0.00,,---,0.00,VWS V14.01,2013-03-10 19:25:00,
2013-03-10 14:30:00,28.1,24.2,30.07,North,355,0.0,11.0,85,0.00,,---,0.00,VWS V14.01,2013-03-10 19:30:00,
2013-03-10 14:35:00,28.1,24.2,30.06,NNE,15,3.0,8.0,85,0.00,,---,0.00,VWS V14.01,2013-03-10 19:35:00,
2013-03-10 14:40:00,28.1,24.2,30.07,North,360,0.0,9.0,85,0.00,,---,0.00,VWS V14.01,2013-03-10 19:40:00,
2013-03-10 14:45:00,28.2,24.6,30.07,North,360,0.0,9.0,86,0.00,,---,0.00,VWS V14.01,2013-03-10 19:45:00,
2013-03-10 14:50:00,28.2,24.6,30.07,North,355,4.0,9.0,86,0.00,,---,0.00,VWS V14.01,2013-03-10 19:50:00,
2013-03-10 14:55:00,28.3,24.7,30.07,North,350,0.0,9.0,86,0.00,,---,0.00,VWS V14.01,2013-03-10 19:55:00,
2013-03-10 15:00:00,28.4,24.8,30.07,NE,55,0.0,9.0,86,0.00,,---,0.00,VWS V14.01,2013-03-10 20:00:00,
2013-03-10 15:05:00,28.4,24.8,30.07,WNW,283,0.0,5.0,86,0.00,,---,0.00,VWS V14.01,2013-03-10 20:05:00,
2013-03-10 15:10:00,28.3,24.7,30.07,North,351,0.0,5.0,86,0.00,,---,0.00,VWS V14.01,2013-03-10 20:10:00,
2013-03-10 15:15:00,28.3,24.7,30.08,North,360,2.0,6.0,86,0.00,,---,0.00,VWS V14.01,2013-03-10 20:15:00,
2013-03-10 15:20:00,28.2,24.6,30.08,NNE,30,2.0,10.0,86,0.00,,---,0.00,VWS V14.01,2013-03-10 20:20:00,
2013-03-10 15:25:00,28.1,24.2,30.09,NNW,345,1.0,10.0,85,0.00,,---,0.00,VWS V14.01,2013-03-10 20:25:00,
2013-03-10 15:30:00,28.2,24.6,30.09,North,10,0.0,10.0,86,0.00,,---,0.00,VWS V14.01,2013-03-10 20:30:00,
2013-03-10 15:35:00,28.3,24.7,30.09,North,355,0.0,2.0,86,0.00,,---,0.00,VWS V14.01,2013-03-10 20:35:00,
2013-03-10 15:40:00,28.3,24.4,30.09,NW,321,5.0,5.0,85,0.00,,---,0.00,VWS V14.01,2013-03-10 20:40:00,
2013-03-10 15:45:00,28.3,24.4,30.09,NNW,330,0.0,7.0,85,0.00,,---,0.00,VWS V14.01,2013-03-10 20:45:00,
2013-03-10 15:50:00,28.3,24.1,30.10,East,85,1.0,7.0,84,0.00,,---,0.00,VWS V14.01,2013-03-10 20:50:00,
2013-03-10 15:55:00,28.3,24.4,30.10,North,9,1.0,7.0,85,0.00,,---,0.00,VWS V14.01,2013-03-10 20:55:00,
2013-03-10 16:00:00,28.4,24.2,30.09,ENE,74,0.0,7.0,84,0.00,,---,0.00,VWS V14.01,2013-03-10 21:00:00,
2013-03-10 16:05:00,28.4,24.2,30.11,NE,44,0.0,1.0,84,0.00,,---,0.00,VWS V14.01,2013-03-10 21:05:00,
2013-03-10 16:10:00,28.5,24.3,30.11,NNE,12,0.0,6.0,84,0.00,,---,0.00,VWS V14.01,2013-03-10 21:10:00,
2013-03-10 16:15:00,28.5,24.3,30.11,North,360,0.0,6.0,84,0.00,,---,0.00,VWS V14.01,2013-03-10 21:15:00,
2013-03-10 16:20:00,28.5,24.6,30.11,North,360,0.0,6.0,85,0.00,,---,0.00,VWS V14.01,2013-03-10 21:20:00,
2013-03-10 16:25:00,28.5,24.6,30.11,North,360,1.0,6.0,85,0.00,,---,0.00,VWS V14.01,2013-03-10 21:25:00,
2013-03-10 16:30:00,28.5,24.6,30.11,NE,40,1.0,6.0,85,0.00,,---,0.00,VWS V14.01,2013-03-10 21:30:00,
2013-03-10 16:35:00,28.5,24.6,30.10,NNE,29,1.0,3.0,85,0.00,,---,0.00,VWS V14.01,2013-03-10 21:35:00,
2013-03-10 16:40:00,28.4,24.2,30.10,North,355,0.0,7.0,84,0.00,,---,0.00,VWS V14.01,2013-03-10 21:40:00,
2013-03-10 16:45:00,28.3,24.1,30.10,NNE,28,4.0,7.0,84,0.00,,---,0.00,VWS V14.01,2013-03-10 21:45:00,
2013-03-10 16:50:00,28.2,24.0,30.10,NNW,348,1.0,7.0,84,0.00,,---,0.00,VWS V14.01,2013-03-10 21:50:00,
2013-03-10 16:55:00,28.2,24.0,30.09,NNE,32,1.0,7.0,84,0.00,,---,0.00,VWS V14.01,2013-03-10 21:55:00,
2013-03-10 17:00:00,28.2,24.0,30.09,East,86,0.0,7.0,84,0.00,,---,0.00,VWS V14.01,2013-03-10 22:00:00,
2013-03-10 17:05:00,28.1,23.9,30.10,NE,49,0.0,4.0,84,0.00,,---,0.00,VWS V14.01,2013-03-10 22:05:00,
2013-03-10 17:10:00,28.1,24.2,30.10,North,355,3.0,5.0,85,0.00,,---,0.00,VWS V14.01,2013-03-10 22:10:00,
2013-03-10 17:15:00,28.1,24.2,30.10,North,355,1.0,5.0,85,0.00,,---,0.00,VWS V14.01,2013-03-10 22:15:00,
2013-03-10 17:20:00,28.1,23.9,30.09,East,83,1.0,5.0,84,0.00,,---,0.00,VWS V14.01,2013-03-10 22:20:00,
2013-03-10 17:25:00,28.0,24.1,30.09,NE,39,0.0,5.0,85,0.00,,---,0.00,VWS V14.01,2013-03-10 22:25:00,
2013-03-10 17:30:00,28.0,26.0,30.08,NNE,19,2.0,5.0,92,0.00,,---,0.00,VWS V14.01,2013-03-10 22:30:00,
2013-03-10 17:35:00,28.0,24.1,30.08,NNW,343,1.0,1.0,85,0.00,,---,0.00,VWS V14.01,2013-03-10 22:35:00,
2013-03-10 17:40:00,28.0,24.1,30.08,North,355,1.0,4.0,85,0.00,,---,0.00,VWS V14.01,2013-03-10 22:40:00,
2013-03-10 17:45:00,28.0,24.1,30.07,NNW,333,0.0,4.0,85,0.00,,---,0.00,VWS V14.01,2013-03-10 22:45:00,
2013-03-10 17:50:00,27.9,24.3,30.08,NNE,12,0.0,4.0,86,0.00,,---,0.00,VWS V14.01,2013-03-10 22:50:00,
2013-03-10 17:55:00,27.9,24.3,30.08,NNE,12,0.0,4.0,86,0.00,,---,0.00,VWS V14.01,2013-03-10 22:55:00,
2013-03-10 18:00:00,27.9,24.3,30.08,North,11,0.0,4.0,86,0.00,,---,0.00,VWS V14.01,2013-03-10 23:00:00,
2013-03-10 18:05:00,27.8,24.2,30.08,North,350,1.0,2.0,86,0.00,,---,0.00,VWS V14.01,2013-03-10 23:05:00,
2013-03-10 18:10:00,27.7,24.1,30.08,East,87,0.0,2.0,86,0.00,,---,0.00,VWS V14.01,2013-03-10 23:10:00,
2013-03-10 18:15:00,27.7,24.1,30.09,North,355,0.0,2.0,86,0.00,,---,0.00,VWS V14.01,2013-03-10 23:15:00,
2013-03-10 18:20:00,27.7,24.3,30.08,North,5,0.0,4.0,87,0.00,,---,0.00,VWS V14.01,2013-03-10 23:20:00,
2013-03-10 18:25:00,27.7,24.1,30.09,North,5,0.0,4.0,86,0.00,,---,0.00,VWS V14.01,2013-03-10 23:25:00,
2013-03-10 18:30:00,27.7,24.1,30.09,North,355,0.0,4.0,86,0.00,,---,0.00,VWS V14.01,2013-03-10 23:30:00,
2013-03-10 18:35:00,27.6,24.0,30.09,NE,49,0.0,1.0,86,0.00,,---,0.00,VWS V14.01,2013-03-10 23:35:00,
2013-03-10 18:40:00,27.5,23.9,30.08,NNE,17,2.0,4.0,86,0.00,,---,0.00,VWS V14.01,2013-03-10 23:40:00,
2013-03-10 18:45:00,27.4,23.8,30.08,NNW,347,0.0,5.0,86,0.00,,---,0.00,VWS V14.01,2013-03-10 23:45:00,
2013-03-10 18:50:00,27.4,23.5,30.08,ENE,71,2.0,6.0,85,0.00,,---,0.00,VWS V14.01,2013-03-10 23:50:00,
2013-03-10 18:55:00,27.3,23.1,30.08,North,11,2.0,9.0,84,0.00,,---,0.00,VWS V14.01,2013-03-10 23:55:00,
2013-03-10 19:00:00,27.2,23.0,30.08,North,9,1.0,9.0,84,0.00,,---,0.00,VWS V14.01,2013-03-11 00:00:00,
2013-03-10 19:05:00,27.0,22.8,30.08,North,360,0.0,5.0,84,0.00,,---,0.00,VWS V14.01,2013-03-11 00:05:00,
2013-03-10 19:10:00,26.9,22.7,30.08,NNW,346,3.0,6.0,84,0.00,,---,0.00,VWS V14.01,2013-03-11 00:10:00,
2013-03-10 19:15:00,26.7,22.5,30.08,NNE,30,0.0,6.0,84,0.00,,---,0.00,VWS V14.01,2013-03-11 00:15:00,
2013-03-10 19:20:00,26.5,22.6,30.08,NNW,344,0.0,6.0,85,0.00,,---,0.00,VWS V14.01,2013-03-11 00:20:00,
2013-03-10 19:25:00,26.3,22.4,30.08,North,351,1.0,6.0,85,0.00,,---,0.00,VWS V14.01,2013-03-11 00:25:00,
2013-03-10 19:30:00,26.2,22.3,30.08,NNW,334,0.0,6.0,85,0.00,,---,0.00,VWS V14.01,2013-03-11 00:30:00,
2013-03-10 19:35:00,26.0,22.1,30.08,NNE,18,0.0,2.0,85,0.00,,---,0.00,VWS V14.01,2013-03-11 00:35:00,
2013-03-10 19:40:00,25.9,22.0,30.08,North,360,1.0,4.0,85,0.00,,---,0.00,VWS V14.01,2013-03-11 00:40:00,
2013-03-10 19:45:00,25.8,22.2,30.08,North,360,0.0,4.0,86,0.00,,---,0.00,VWS V14.01,2013-03-11 00:45:00,
2013-03-10 19:50:00,25.7,22.1,30.08,North,5,0.0,4.0,86,0.00,,---,0.00,VWS V14.01,2013-03-11 00:50:00,
2013-03-10 19:55:00,25.6,22.0,30.08,North,360,1.0,4.0,86,0.00,,---,0.00,VWS V14.01,2013-03-11 00:55:00,
2013-03-10 20:00:00,25.4,21.8,30.08,North,5,0.0,4.0,86,0.00,,---,0.00,VWS V14.01,2013-03-11 01:00:00,
2013-03-10 20:05:00,25.4,21.8,30.08,North,349,0.0,1.0,86,0.00,,---,0.00,VWS V14.01,2013-03-11 01:05:00,
2013-03-10 20:10:00,25.3,21.7,30.08,NNW,346,0.0,4.0,86,0.00,,---,0.00,VWS V14.01,2013-03-11 01:10:00,
2013-03-10 20:15:00,25.3,21.7,30.08,North,360,1.0,4.0,86,0.00,,---,0.00,VWS V14.01,2013-03-11 01:15:00,
2013-03-10 20:20:00,25.2,21.6,30.09,NNE,18,0.0,4.0,86,0.00,,---,0.00,VWS V14.01,2013-03-11 01:20:00,
2013-03-10 20:25:00,25.2,21.6,30.09,NNE,18,0.0,4.0,86,0.00,,---,0.00,VWS V14.01,2013-03-11 01:25:00,
2013-03-10 20:30:00,25.1,21.5,30.09,NNE,17,0.0,4.0,86,0.00,,---,0.00,VWS V14.01,2013-03-11 01:30:00,
2013-03-10 20:35:00,24.9,21.3,30.09,NNW,342,0.0,0.0,86,0.00,,---,0.00,VWS V14.01,2013-03-11 01:35:00,
2013-03-10 20:40:00,24.8,21.5,30.09,NNW,342,0.0,0.0,87,0.00,,---,0.00,VWS V14.01,2013-03-11 01:40:00,
2013-03-10 20:45:00,24.7,21.4,30.09,NNW,342,0.0,0.0,87,0.00,,---,0.00,VWS V14.01,2013-03-11 01:45:00,
2013-03-10 20:50:00,24.5,21.2,30.09,NNW,342,0.0,2.0,87,0.00,,---,0.00,VWS V14.01,2013-03-11 01:50:00,
2013-03-10 20:54:00,24.3,21.0,30.09,NNW,342,0.0,2.0,87,0.00,,---,0.00,VWS V14.01,2013-03-11 01:54:00,
2013-03-10 21:00:00,24.2,20.9,30.09,NNW,342,2.0,3.0,87,0.00,,---,0.00,VWS V14.01,2013-03-11 02:00:00,
2013-03-10 21:05:00,24.2,20.9,30.09,NNW,342,1.0,1.0,87,0.00,,---,0.00,VWS V14.01,2013-03-11 02:05:00,
2013-03-10 21:10:00,24.0,20.7,30.09,NNW,342,1.0,2.0,87,0.00,,---,0.00,VWS V14.01,2013-03-11 02:10:00,
2013-03-10 21:14:00,24.0,20.7,30.09,NNW,344,0.0,2.0,87,0.00,,---,0.00,VWS V14.01,2013-03-11 02:14:00,
2013-03-10 21:19:00,23.9,20.9,30.10,NNW,344,0.0,2.0,88,0.00,,---,0.00,VWS V14.01,2013-03-11 02:19:00,
2013-03-10 21:24:00,23.9,20.9,30.10,NNW,344,0.0,2.0,88,0.00,,---,0.00,VWS V14.01,2013-03-11 02:24:00,
2013-03-10 21:29:00,23.9,20.9,30.10,NNW,344,0.0,2.0,88,0.00,,---,0.00,VWS V14.01,2013-03-11 02:29:00,
2013-03-10 21:30:00,25.0,21.4,30.09,NNW,342,0.0,4.0,86,0.00,,---,0.00,VWS V14.01,2013-03-11 02:30:00,
2013-03-10 21:34:00,23.9,20.9,30.10,NNW,344,0.0,1.0,88,0.00,,---,0.00,VWS V14.01,2013-03-11 02:34:00,
2013-03-10 21:39:00,23.9,20.9,30.10,NNW,344,0.0,1.0,88,0.00,,---,0.00,VWS V14.01,2013-03-11 02:39:00,
2013-03-10 21:44:00,23.8,20.8,30.10,NNW,344,0.0,1.0,88,0.00,,---,0.00,VWS V14.01,2013-03-11 02:44:00,
2013-03-10 21:49:00,23.7,20.7,30.10,NNW,344,0.0,1.0,88,0.00,,---,0.00,VWS V14.01,2013-03-11 02:49:00,
2013-03-10 21:54:00,23.6,20.6,30.10,NNW,344,0.0,1.0,88,0.00,,---,0.00,VWS V14.01,2013-03-11 02:54:00,
2013-03-10 21:59:00,23.6,20.6,30.10,NNW,344,0.0,1.0,88,0.00,,---,0.00,VWS V14.01,2013-03-11 02:59:00,
2013-03-10 22:00:00,24.2,20.9,30.09,NNW,342,0.0,3.0,87,0.00,,---,0.00,VWS V14.01,2013-03-11 03:00:00,
2013-03-10 22:04:00,23.6,20.8,30.10,NNW,344,0.0,1.0,89,0.00,,---,0.00,VWS V14.01,2013-03-11 03:04:00,
2013-03-10 22:09:00,23.7,20.9,30.10,NNW,344,0.0,1.0,89,0.00,,---,0.00,VWS V14.01,2013-03-11 03:09:00,
2013-03-10 22:14:00,23.9,21.1,30.10,NNE,26,0.0,4.0,89,0.00,,---,0.00,VWS V14.01,2013-03-11 03:14:00,
2013-03-10 22:19:00,24.2,21.2,30.10,ENE,60,0.0,5.0,88,0.00,,---,0.00,VWS V14.01,2013-03-11 03:19:00,
2013-03-10 22:24:00,24.4,21.1,30.10,North,360,0.0,5.0,87,0.00,,---,0.00,VWS V14.01,2013-03-11 03:24:00,
2013-03-10 22:29:00,24.6,21.3,30.10,ENE,64,0.0,5.0,87,0.00,,---,0.00,VWS V14.01,2013-03-11 03:29:00,
2013-03-10 22:30:00,23.9,20.9,30.10,NNW,344,0.0,2.0,88,0.00,,---,0.00,VWS V14.01,2013-03-11 03:30:00,
2013-03-10 22:34:00,24.7,21.4,30.09,ENE,65,0.0,0.0,87,0.00,,---,0.00,VWS V14.01,2013-03-11 03:34:00,
2013-03-10 22:39:00,24.8,21.5,30.10,ENE,59,0.0,2.0,87,0.00,,---,0.00,VWS V14.01,2013-03-11 03:39:00,
2013-03-10 22:44:00,24.8,21.2,30.09,North,350,6.0,6.0,86,0.00,,---,0.00,VWS V14.01,2013-03-11 03:44:00,
2013-03-10 22:49:00,24.7,20.8,30.09,NE,49,0.0,6.0,85,0.00,,---,0.00,VWS V14.01,2013-03-11 03:49:00,
2013-03-10 22:54:00,24.7,20.8,30.09,NE,47,0.0,6.0,85,0.00,,---,0.00,VWS V14.01,2013-03-11 03:54:00,
2013-03-10 22:59:00,24.5,20.4,30.09,North,351,0.0,6.0,84,0.00,,---,0.00,VWS V14.01,2013-03-11 03:59:00,
2013-03-10 23:00:00,24.6,20.5,30.09,ESE,105,1.0,6.0,84,0.00,,---,0.00,VWS V14.01,2013-03-11 04:00:00,
2013-03-10 23:05:00,24.4,20.3,30.08,North,5,5.0,5.0,84,0.00,,---,0.00,VWS V14.01,2013-03-11 04:05:00,
2013-03-10 23:10:00,24.4,20.3,30.08,WNW,284,0.0,5.0,84,0.00,,---,0.00,VWS V14.01,2013-03-11 04:10:00,
2013-03-10 23:15:00,24.3,20.2,30.08,North,5,0.0,5.0,84,0.00,,---,0.00,VWS V14.01,2013-03-11 04:15:00,
2013-03-10 23:20:00,24.2,20.1,30.08,ENE,59,1.0,5.0,84,0.00,,---,0.00,VWS V14.01,2013-03-11 04:20:00,
2013-03-10 23:25:00,24.1,20.0,30.08,North,349,0.0,6.0,84,0.00,,---,0.00,VWS V14.01,2013-03-11 04:25:00,
2013-03-10 23:30:00,24.0,19.9,30.07,WNW,296,0.0,6.0,84,0.00,,---,0.00,VWS V14.01,2013-03-11 04:30:00,
2013-03-10 23:35:00,23.9,19.8,30.07,North,355,0.0,5.0,84,0.00,,---,0.00,VWS V14.01,2013-03-11 04:35:00,
2013-03-10 23:40:00,23.9,19.8,30.07,NNE,18,0.0,5.0,84,0.00,,---,0.00,VWS V14.01,2013-03-11 04:40:00,
2013-03-10 23:45:00,23.8,20.0,30.07,NNE,18,0.0,5.0,85,0.00,,---,0.00,VWS V14.01,2013-03-11 04:45:00,
2013-03-10 23:50:00,23.8,20.0,30.07,NNE,18,0.0,5.0,85,0.00,,---,0.00,VWS V14.01,2013-03-11 04:50:00,
2013-03-10 23:55:00,23.7,19.9,30.07,NNW,334,1.0,6.0,85,0.00,,---,0.00,VWS V14.01,2013-03-11 04:55:00,